User: anonymous   Login
Location: Unspecified
(0.0000°N, 0.0000°E)
Time: 10:47:44
(UTC+00:00)
Language:

Tiros 6 - Orbit

View from above orbital plane
View from above orbital plane
View from above satellite
View from above satellite

Ground track
Ground track

The orbit data is extracted from the following two-line orbital elements,

1   397U 62047A   19023.90237498 -.00000118  00000-0  10634-4 0  9994
2   397  58.3049 165.8317 0013633  57.9057 302.3309 14.88347799 30913
Epoch (UTC): 23 January 2019 21:39:25
Eccentricity: 0.0013633
inclination: 58.3049°
perigee height: 593 km
apogee height: 612 km
right ascension of ascending node: 165.8317°
argument of perigee: 57.9057°
revolutions per day: 14.88347799
mean anomaly at epoch: 302.3309°
orbit number at epoch: 3091

The dashed part of the orbit path shows where the satellite is in the earth's shadow,  

DLR